Location: Crescent
(42.8242°N, 73.7329°W)
Time: 21:17:17
(UTC+00:00)

SR - Pass Details

Date: 17 February 2026
Orbit: 573 x 848 km, 66.7° (Epoch: 6 March)

Event Time Altitude Azimuth Distance (km) Brightness Sun altitude
Rises 08:41:01 0° 181° (S) 2,762 - -34.9°
Reaches altitude 10° 08:43:26 10° 169° (SSE) 1,874 - -34.5°
Maximum altitude 08:46:58 27° 111° (ESE) 1,134 - -33.9°
Exits shadow 08:48:27 22° 78° (ENE) 1,308 ? -33.6°
Drops below altitude 10° 08:50:37 10° 53° (NE) 1,942 ? -33.2°
Sets 08:53:10 0° 42° (NE) 2,885 ? -32.8°
